Regional Weather Roundup
Issued by NWS Lake Charles, LA

Home | Current Version | Previous Version | Text Only | Print | Product List | Glossary On
Versions: 1 2 3 4 5 6 7 8 9 10 11 12 13 14 15 16 17 18 19 20 21 22 23 24 25 26 27 28 29 30 31 32 33 34 35 36 37 38 39 40 41 42 43 44 45 46 47 48 49 50
000
ASUS44 KLCH 310510
RWRLCH
REGIONAL WEATHER ROUNDUP
NATIONAL WEATHER SERVICE LAKE CHARLES LA
1200 AM CDT SUN JUL 31 2016

Note: "fair" indicates few or no clouds below 12,000 feet with no
significant weather and/or obstructions to visibility.


ACROSS SOUTHEAST TEXAS

CITY           SKY/WX    TMP DP  RH WIND       PRES   REMARKS
BEAUMONT       CLEAR     77  75  93 SE3       30.00S
BEAUMONT CITY  FAIR      80  76  88 CALM      30.02R
ORANGE         CLEAR     77  75  92 CALM      30.03S
JASPER         CLOUDY    79  74  86 CALM      30.03S
$$

ACROSS CENTRAL LOUISIANA

CITY           SKY/WX    TMP DP  RH WIND       PRES   REMARKS
LEESVILLE      CLEAR     81  76  85 S7        30.01S
FULLERTON      FAIR      79  76  90 CALM      29.99S
ALEXANDRIA INT CLEAR     80  76  87 N10       30.00S
ESLER FIELD    MOCLDY    80  75  84 NE6       30.03R
DERIDDER       FAIR      81  78  92 CALM      30.04R
OAKDALE        CLEAR     76  75  98 CALM      30.01S
OPELOUSAS      FAIR      78  75  91 SE6       30.02S
$$

ACROSS SOUTHWEST AND SOUTH CENTRAL LOUISIANA

CITY           SKY/WX    TMP DP  RH WIND       PRES   REMARKS
SULPHUR        CLEAR     81  77  89 CALM      30.02F
LAKE CHARLES   CLEAR     79  77  94 SE5       30.01S
CHENNAULT INT  CLEAR     78  76  95 CALM      30.02S
CAMERON PHI    PTCLDY    84  77  79 SW7       30.01S
DEQUINCY       FAIR      77  76  98 CALM      30.02S
JENNINGS       FAIR      81  77  89 CALM      30.02S
LAFAYETTE      CLEAR     80  78  94 CALM      30.03S
NEW IBERIA     CLEAR     79  77  94 CALM      30.03S
ABBEVILLE      FAIR      76  76 100 CALM      30.03S
PATTERSON      CLEAR     78  77  96 CALM      30.03F
SALT POINT       N/A     84  76  76 CALM      30.01S
$$

SELECTED SITES ACROSS THE REGION

CITY           SKY/WX    TMP DP  RH WIND       PRES   REMARKS
HOUSTON BUSH   PTCLDY    82  76  81 S3        30.00R
HOUSTON HOBBY  PTCLDY    81  76  84 S3        30.00R
GALVESTON      CLEAR     84  77  79 S9        30.01S
COLLEGE STAT   CLEAR     83  75  77 S12       29.99S
CONROE         CLEAR     80  76  87 S6        30.00S
HUNTSVILLE     CLEAR     80  73  79 S6        30.00R
LUFKIN         CLEAR     80  75  84 VRB3      29.99S
SHREVEPORT     PTCLDY    78  74  87 SE5       29.99F
MONROE         CLOUDY    74  72  93 E3        30.04R
NATCHEZ MS     CLOUDY    75  70  83 NE10G18   30.06S THUNDER
BATON ROUGE    CLEAR     79  74  84 CALM      30.03F
N.O. INTL ARPT PTCLDY    83  76  79 W5        30.03S
SLIDELL        CLEAR     78  76  93 N3        30.03S
$$

MARINE REPORTS

STATION/POSITION TIME  SKY/WX   TEMP    WIND        PRES    VSBY
                                AIR SEA DIR/SP/G
                 (UTC)          (F)     (DEG/KT/KT) (MB)    (MI)
BUOY 30 S HIGH I 0450            85 87  190/ 10/ 12 1015.8F
WVE H/P(F/S)=  2/ 3

SEA RIM ST PARK  0500            85     200/  8/  9 1016.7R
PORT ARTHUR      0400               89  190/  3/  5 1016.1
SABINE PASS N    0400            83 90  200/  4/  6 1017.4
TEXAS POINT      NOT AVBL
CALCASIEU PASS   0400            86 89  220/  9/ 11 1015.7
LK CHARLES BEACH 0400            83 88              1016.9
MARSH ISLAND     NOT AVBL
FRESH WATER LOCK 0400            84 89  220/  3/  4 1017.4
AMERADA PASS     0400            83 89   CALM  /  1 1016.8
$$



USA.gov is the U.S. government's official web portal to all federal, state and local government web resources and services.